Notices

What's New in latest Release from April 7th, 2021:

- Updated Glossary, including Speed of Maximum Gust, and Total Hourly Precipitation

- Updated national and regional climate services offices contacts and prices information

- Addition of station inventory lists for 1981-2010, 1971-2000, and 1961-1990 Normals.

If you haven't already, please take our survey and provide feedback about our website: https://eccc.sondage-survey.ca/f/LanguageSelection.aspx?s=442ca660-fcf1-47c0-95a9-59707d6fd709

Hourly Data Report for April 13, 2021

PILGER
SASKATCHEWAN
Current Station Operator: ECCC - MSC

52°25'00.000" N
105°09'00.000" W
552.00 m
4056121
71655
PUN

Download Data

Hourly Data (April 2021)
Hourly Data Report for April 13, 2021
TIME
LST
Temp Definition
°C
Dew Point Definition
°C
Rel Hum Definition
%
Precip. Amount Definition
mm

Wind Dir Definition
10's deg

Wind Spd Definition
km/h
Visibility Definition
km
Stn Press Definition
kPa
Hmdx Definition


Wind Chill Definition


Weather Definition


00:00 -1.3 -8.8 56 0.0 1 36   96.44   -9 LegendNANA
01:00 -1.7 -8.3 60 0.0 1 37   96.46   -9 LegendNANA
02:00 -2.0 -8.4 62 0.0 1 35   96.46   -10 LegendNANA
03:00 -2.9 -7.9 68 0.0 1 38   96.49   -11 LegendNANA
04:00 -3.0 -8.7 65 0.0 1 33   96.50   -11 LegendNANA
05:00 -3.5 -8.9 66 0.0 1 33   96.53   -11 LegendNANA
06:00 -3.7 -8.9 67 0.0 36 35   96.52   -12 LegendNANA
07:00 -3.9 -8.8 69 0.0 36 32   96.52   -12 LegendNANA
08:00 -4.0 -9.4 66 0.0 1 34   96.54   -12 LegendNANA
09:00 -3.6 -9.1 65 0.0 1 35   96.56   -12 LegendNANA
10:00 -3.6 -8.8 67 0.0 2 36   96.59   -12 LegendNANA
11:00 -2.8 -8.0 68 0.0 2 33   96.61   -10 LegendNANA
12:00 -1.7 -7.1 67 0.0 3 35   96.58   -9 LegendNANA
13:00 -1.0 -6.4 67 0.0 3 37   96.60   -8 LegendNANA
14:00 -1.0 -7.7 61 0.0 3 38   96.59   -9 LegendNANA
15:00 0.1 -7.2 58 0.0 3 37   96.57     LegendNANA
16:00 0.0 -7.8 55 0.0 3 37   96.58   -7 LegendNANA
17:00 0.1 -8.1 54 0.0 4 34   96.59     LegendNANA
18:00 -0.4 -7.9 57 0.0 4 30   96.60   -7 LegendNANA
19:00 -0.6 -8.2 56 0.0 4 29   96.62   -7 LegendNANA
20:00 -1.1 -8.7 56 0.0 4 21   96.63   -7 LegendNANA
21:00 -1.1 -8.6 57 0.0 4 21   96.65   -7 LegendNANA
22:00 -1.6 -7.9 62 0.0 3 20   96.66   -7 LegendNANA
23:00 -1.7 -8.0 62 0.0 3 15   96.67   -7 LegendNANA

Notes on Data Quality.

Legend

  • E = Estimated
  • M = Missing
  • NA = Not Available*
  • [empty] = Indicates an unobserved value
Date modified: